Location: Baia Mare
(47.6567°N, 23.5850°E)
Time: 03:08:29
(UTC+03:00)

ISS - Pass Details

Date: 12 January 2019
Orbit: 408 x 410 km, 51.6° (Epoch: 25 April)

Event Time Altitude Azimuth Distance (km) Brightness Sun altitude
Exits shadow 06:02:52 22° 184° (S) 952 -1.9 -20.9°
Drops below altitude 10° 06:04:36 10° 158° (SSE) 1,472 -0.6 -20.7°
Sets 06:06:51 0° 146° (SE) 2,327 0.7 -20.3°
